カタログに戻る

SIRION PATHFINDER-2

運用中科学SSO
NORAD 43759·PAYLOAD·🇺🇸 United States

打ち上げ Dec 3, 2018 から Vandenberg Space Force Base

Loading…

次のパス (今後24時間)

TLE

最新Source: Space-Track

元期: Sep 14, 2026, 02:09 UTC

1 43759U 18099B   26257.08989207  .00003669  00000-0  19880-3 0  9993
2 43759  97.4166 304.0329 0008454   3.0415 357.0867 15.15189398426084

AllMySatでSIRION PATHFINDER-2をリアルタイム追跡

Download on the App Store